Погода в Любилках

Россия / Ярославская область     56°57′59″N   39°12′22″E
темп.,
°C
ветер,
м/с
пор.,
м/с
влажн.,
%
обл.,
%
осадки,
мм/ч
давл.,
гПа
погр.,
м
12 апреля, пн
пн1200:00+7ю388297 0.0 1033147
03:00+5ю22846 0.0 103439
06:00+4ююв33835 0.0 103539
09:00+9юв4670100 0.0 1035262
12:00+13юв5957100 0.0 1034772
15:00+14юв6955100 0.0 10331049
18:00+11вюв61166100 0.0 1031682
21:00+8юв5128196 0.0 1031439
13 апреля, вт
вт1300:00+6юв51189100 0.0 1030306
03:00+5юв4119691 0.0 1029243
06:00+6юв41195100 0.0 1028219
09:00+12ююв5117088 0.0 1027385
12:00+17ю6114684 0.0 10261020
15:00+19ю6103999 0.0 10251895
18:00+16ю495197 0.0 1024250
21:00+12ю4106318 0.0 1025158
14 апреля, ср
ср1400:00+10ю3106790 0.0 1024176
03:00+8ююв412735 0.0 1024210
06:00+7ю411770 0.0 1023184
09:00+13ю595511 0.0 1022394
12:00+17ю68415 0.0 10211066
15:00+18ю683341 0.0 10201932
18:00+16ю3644100 0.0 1019157
21:00+12ю34575 0.0 101963
15 апреля, чт
чт1500:00+9ю356661 0.0 101968
03:00+8ююз226971 0.0 101915
06:00+8ююв226999 0.0 101911
09:00+13юв225599 0.0 1019234
12:00+16вюв2244100 0.0 1019701
15:00+18всв213974 0.0 10181235
18:00+16ссв2350100 0.0 101855
21:00+10ссв61188100 0.0 1019354
16 апреля, пт
пт1600:00+8ссв51089100 0.0 1020344
03:00+6ссв61092100 0.0 1021349
06:00+5св51191100 0.0 1022400
09:00+8св71077100 0.0 1023573
12:00+10св796854 0.0 1024803
15:00+11св796040 0.0 10251010
18:00+11всв69475 0.0 10261158
21:00+7св513605 0.0 1028403